PST,Max TemperatureF,Mean TemperatureF,Min TemperatureF,Max Dew PointF,MeanDew PointF,Min DewpointF,Max Humidity, Mean Humidity, Min Humidity, Max Sea Level PressureIn, Mean Sea Level PressureIn, Min Sea Level PressureIn, Max VisibilityMiles, Mean VisibilityMiles, Min VisibilityMiles, Max Wind SpeedMPH, Mean Wind SpeedMPH, Max Gust SpeedMPH,PrecipitationIn, CloudCover, Events, WindDirDegrees
2012-12-1,49,44,39,38,35,30,79,70,60,30.01,29.93,29.81,10,7,2,38,21,59,0.27,7,Rain,196
2012-12-2,46,38,29,38,34,24,85,78,70,30.09,29.82,29.62,10,5,0,36,17,56,1.81,7,Fog-Rain-Snow,202
2012-12-3,50,41,32,35,30,19,85,57,28,30.19,30.12,30.05,10,10,10,20,6,25,T,3,Rain,201
2012-12-4,52,46,39,36,25,7,85,52,19,30.24,30.16,30.08,10,9,4,23,6,35,0.10,8,Rain,169
2012-12-5,49,42,35,45,40,33,86,78,70,30.21,30.16,30.08,10,5,0,28,3,40,0.92,7,Fog-Rain,178
2012-12-6,51,40,29,37,30,25,92,69,46,30.18,30.12,30.02,10,7,0,13,1,15,0.00,2,Fog,190
2012-12-7,53,39,25,29,21,12,85,53,21,30.21,30.14,30.07,10,10,9,8,2,10,0.00,0,,194
2012-12-8,50,37,24,26,20,16,78,54,29,30.15,30.10,30.03,10,10,10,9,2,14,0.00,0,,192
2012-12-9,48,37,25,26,23,21,81,60,38,30.36,30.26,30.12,10,10,9,15,2,21,0.00,0,,163
2012-12-10,54,39,23,31,24,19,88,62,35,30.41,30.31,30.21,10,10,9,7,2,9,0.00,0,,169
2012-12-11,54,38,21,25,19,9,84,50,16,30.17,29.93,29.63,10,9,2,30,7,46,T,2,Snow,197
2012-12-12,36,22,7,29,23,3,92,82,72,29.86,29.72,29.64,10,2,0,21,8,33,0.39,6,Fog-Snow,183
2012-12-13,32,16,0,17,6,-4,91,68,45,29.96,29.90,29.82,10,10,7,9,3,12,0.00,0,,189
2012-12-14,30,16,2,21,15,-4,86,68,50,29.96,29.84,29.74,10,6,1,12,4,15,0.01,6,Snow,185
2012-12-15,30,16,1,23,13,-4,87,70,53,30.06,29.97,29.85,10,9,4,20,6,24,T,5,Snow,191
2012-12-16,41,36,30,32,28,23,82,73,64,30.00,29.95,29.84,10,6,1,25,13,43,0.01,7,Rain-Snow,187
2012-12-17,41,36,31,32,30,21,85,74,63,29.93,29.88,29.81,10,4,1,31,14,53,0.32,8,Rain-Snow,201
2012-12-18,32,20,7,25,16,2,85,60,34,30.12,29.84,29.77,10,6,0,12,4,18,0.07,6,Fog-Snow,145
2012-12-19,37,19,0,18,6,-6,83,57,30,30.34,30.23,30.08,10,10,3,8,2,9,0.00,0,,190
2012-12-20,42,30,18,12,10,4,68,46,24,30.09,29.97,29.87,10,10,9,36,16,53,0.00,0,,181
2012-12-21,41,35,29,28,19,4,75,48,20,29.93,29.88,29.83,10,5,0,35,20,46,0.02,5,Fog-Snow,198
2012-12-22,38,33,28,31,25,19,85,80,75,29.98,29.84,29.70,10,2,0,29,13,47,0.49,8,Fog-Snow,200
2012-12-23,36,33,29,30,25,19,89,76,63,29.98,29.87,29.78,10,2,0,26,15,40,0.38,8,Fog-Snow,199
2012-12-24,36,26,16,25,19,12,88,64,40,30.20,30.00,29.86,10,6,1,20,8,30,0.01,3,Snow,187
2012-12-25,36,25,13,30,24,10,89,67,44,30.14,29.84,29.67,10,3,0,26,6,36,0.39,7,Fog-Snow,183
2012-12-26,33,23,13,25,21,10,85,77,69,29.98,29.74,29.65,10,3,0,23,10,32,0.11,8,Fog-Snow,181
2012-12-27,33,15,-3,18,13,-6,84,66,47,30.23,30.05,29.96,10,9,4,8,2,12,0.01,5,Snow,169
2012-12-28,32,14,-5,19,6,-9,84,64,43,30.32,30.16,29.97,10,9,3,12,2,17,T,4,Snow,182
2012-12-29,32,26,20,23,19,15,84,69,54,30.04,29.95,29.90,10,6,0,8,1,9,0.02,8,Fog-Snow,85
2012-12-30,29,15,0,18,13,-1,84,67,50,30.21,29.99,29.89,10,6,0,13,2,17,0.03,6,Snow,88
2012-12-31,35,14,-8,21,3,-12,86,61,35,30.47,30.28,30.13,10,7,1,10,2,12,0.00,1,,181